SCP
0 0 0 0 0 0 0 0 0 0 0 0 0 0 0 0 -0 -0 0 -0 -0 -0
0 0 0 0 0 0 0 0 1 0 0 0 0 0 0 0 0 -0 -0 -0 -0 -0
0 0 0 0 0 0 0 0 0 0 0 0 0 0 0 0 -0 -0 -0 -0 0 0
0 0 0 0 0 0 0 0 0 0 0 0 0 0 -0 -0 -0 -0 0 0 0 0
0 0 0 0 0 0 -0 -0 0 0 0 0 0 0 0 0 0 0 0 0 0 0
0 0 0 0 0 0 0 0 0 0 0 0 0 0 0 0 0 0 0 0 0 0
0 0 0 0 0 0 0 0 0 0 0 0 0 0 0 0 0 0 0 0 0 0
0 0 0 0 0 0 0 0 0 0 0 0 0 0 0 0 0 0 0 0 0 0
0 0 0 0 0 0 0 0 0 0 0 0 0 0 0 0 0 0 0 0 0 0
0 0 0 0 0 0 0 0 0 0 0 0 0 0 0 0 0 0 0 0 0 0
0 0 0 0 0 0 0 0 -0 0 0 0 0 0 0 0 0 0 0 0 0 0
0 0 0 0 -0 -0 -0 -0 -0 0 0 0 0 0 0 0 0 0 0 0 0 0
0 0 0 -0 -0 -0 -0 -0 -0 0 0 0 0 0 0 0 0 0 0 0 0 0
0 0 0 0 -0 -0 -0 0 0 0 0 0 0 0 0 0 0 0 0 0 0 0
Wind_Speed_500mb
47 51 56 50 46 42 39 47 54 60 60 60 66 62 56 60 51 68 63 51 71 59
42 48 57 51 56 57 54 50 46 49 54 58 29 34 37 64 54 62 74 76 72 66
26 29 34 37 35 44 46 46 49 46 29 40 61 58 54 67 68 66 63 61 65 58
7 8 7 9 12 13 14 17 19 26 25 27 22 17 32 51 55 68 58 53 50 45
25 27 26 27 27 26 29 29 23 3 6 6 5 20 25 36 37 38 39 37 40 44
17 15 17 16 13 10 11 12 9 6 3 2 11 22 28 33 38 41 44 47 53 54
16 19 17 15 14 10 5 4 3 4 8 13 16 20 24 28 33 38 40 45 51 56
14 12 13 15 17 17 19 18 19 21 22 25 27 33 42 46 49 53 56 58 62 65
9 10 9 12 17 23 26 29 32 35 38 41 42 46 52 57 61 63 66 72 74 75
16 19 22 26 32 37 41 43 45 47 49 49 48 47 47 47 50 54 57 61 65 69
36 37 41 45 47 49 51 53 54 51 47 46 47 49 51 56 61 65 66 68 69 70
46 49 52 55 58 59 60 58 57 57 59 62 65 62 57 52 49 50 49 47 45 46
45 53 58 59 60 60 62 66 69 72 69 63 53 42 38 33 40 46 52 55 56 53
42 47 52 57 59 64 71 78 68 58 50 44 37 29 31 37 47 46 49 53 56 54
Wind_Direction_500mb
243 246 248 258 262 261 265 274 264 259 259 260 248 242 241 260 241 255 246 195 211 223
249 262 254 267 271 266 264 264 269 264 263 267 270 250 251 231 237 248 236 230 241 249
246 249 252 258 263 256 254 251 254 258 260 270 276 261 254 223 227 241 238 239 250 247
41 310 328 326 287 294 273 265 261 256 247 256 258 241 232 236 250 241 247 240 244 253
84 85 85 84 82 80 83 78 46 273 331 313 268 256 267 258 254 247 249 253 262 268
96 94 86 84 86 68 52 40 57 87 113 230 253 247 243 247 247 251 256 260 263 266
37 27 18 4 354 339 327 305 298 266 257 258 263 268 265 257 256 260 262 264 265 264
29 360 326 315 315 317 320 316 303 289 281 276 270 270 271 272 273 273 272 270 267 266
8 351 347 323 320 315 312 310 307 302 297 294 290 283 279 277 277 278 278 276 276 279
317 313 310 308 305 304 306 306 304 303 303 303 303 302 300 296 291 287 286 286 286 285
308 306 303 303 306 306 306 308 310 310 310 309 307 304 298 294 290 287 286 284 284 285
309 308 309 311 314 316 315 314 310 308 306 304 302 301 300 300 297 296 298 299 301 303
305 305 309 313 315 314 313 312 309 305 304 303 304 306 307 303 305 307 310 310 311 312
305 307 308 309 309 311 312 312 309 308 309 307 309 308 310 311 309 313 313 314 314 314
Wind_Speed_850mb
47 51 56 50 46 42 39 47 54 60 60 60 66 62 56 60 51 68 63 51 71 59
42 48 57 51 56 57 54 50 46 49 54 58 29 34 37 64 54 62 74 76 72 66
26 29 34 37 35 44 46 46 49 46 29 40 61 58 54 67 68 66 63 61 65 58
7 8 7 9 12 13 14 17 19 26 25 27 22 17 32 51 55 68 58 53 50 45
25 27 26 27 27 26 29 29 23 3 6 6 5 20 25 36 37 38 39 37 40 44
17 15 17 16 13 10 11 12 9 6 3 2 11 22 28 33 38 41 44 47 53 54
16 19 17 15 14 10 5 4 3 4 8 13 16 20 24 28 33 38 40 45 51 56
14 12 13 15 17 17 19 18 19 21 22 25 27 33 42 46 49 53 56 58 62 65
9 10 9 12 17 23 26 29 32 35 38 41 42 46 52 57 61 63 66 72 74 75
16 19 22 26 32 37 41 43 45 47 49 49 48 47 47 47 50 54 57 61 65 69
36 37 41 45 47 49 51 53 54 51 47 46 47 49 51 56 61 65 66 68 69 70
46 49 52 55 58 59 60 58 57 57 59 62 65 62 57 52 49 50 49 47 45 46
45 53 58 59 60 60 62 66 69 72 69 63 53 42 38 33 40 46 52 55 56 53
42 47 52 57 59 64 71 78 68 58 50 44 37 29 31 37 47 46 49 53 56 54
Wind_Direction_850mb
243 246 248 258 262 261 265 274 264 259 259 260 248 242 241 260 241 255 246 195 211 223
249 262 254 267 271 266 264 264 269 264 263 267 270 250 251 231 237 248 236 230 241 249
246 249 252 258 263 256 254 251 254 258 260 270 276 261 254 223 227 241 238 239 250 247
41 310 328 326 287 294 273 265 261 256 247 256 258 241 232 236 250 241 247 240 244 253
84 85 85 84 82 80 83 78 46 273 331 313 268 256 267 258 254 247 249 253 262 268
96 94 86 84 86 68 52 40 57 87 113 230 253 247 243 247 247 251 256 260 263 266
37 27 18 4 354 339 327 305 298 266 257 258 263 268 265 257 256 260 262 264 265 264
29 360 326 315 315 317 320 316 303 289 281 276 270 270 271 272 273 273 272 270 267 266
8 351 347 323 320 315 312 310 307 302 297 294 290 283 279 277 277 278 278 276 276 279
317 313 310 308 305 304 306 306 304 303 303 303 303 302 300 296 291 287 286 286 286 285
308 306 303 303 306 306 306 308 310 310 310 309 307 304 298 294 290 287 286 284 284 285
309 308 309 311 314 316 315 314 310 308 306 304 302 301 300 300 297 296 298 299 301 303
305 305 309 313 315 314 313 312 309 305 304 303 304 306 307 303 305 307 310 310 311 312
305 307 308 309 309 311 312 312 309 308 309 307 309 308 310 311 309 313 313 314 314 314